STARLINK-4709, 53778

Orbit data source: Space-Track

STARLINK-4709, 53778 is a payload satellite owned by SpaceX/Seattle (US) in LEO that was launched on Sun, 11 Sep 2022 UTC via an FALCON 9 launch vehicle from the Air Force Eastern Test Range (AFETR). Payload-class satellites include a variety of spacecraft equipped with specific instruments for various scientific and technological missions. These include communications satellites like Starlink; space stations such as the ISS; scientific satellites like the Hubble; Earth observation satellites from companies like Planet Labs, Umbra, and HawkEye 360; GPS; miniature CubeSats for education and research; and military/defense satellites.

Loading next visibility...
Identifier
53778, 2022-111F
Orbit
LEO
Country
Flag of USUS
Related business
Manufacturer
SpaceX/Seattle
Mission
Operational Commercial Communications
Bus & Motor
STARLINK, Unknown motor
Mass
305 kg wet, ~290 kg dry
Launch date (UTC)
2022-09-11 (4 years ago)
Launch vehicle
FALCON 9
Launch site
Air Force Eastern Test Range (AFETR)
Object type
Payload
Rocket body
Debris
Shape & HBR
Box + 1 Pan, 10.1 m
Radar Cross Section
13.562 m², Large (>1 m²)

Expand to show TLE details & history
Last TLE update: 15 hours ago

TLE from 15 hours ago
0 STARLINK-4709
1 53778U 22111F   26263.99180807  .00000445  00000-0  26104-4 0  9998
2 53778  53.1596 109.5417 0001192  86.4399 273.6739 15.31705121223280
Epoch: 2026-09-20T23:48Z
TLE epoch observation values (Epoch: 2026-09-20T23:48:12.217Z)
Latitude
0.00001°
Longitude
112.61276°
Altitude
471.573 km
Speed
7.632 km/s
True Right ascension
07h 18m 10s
True Declination
0° 00' 00"
Sunlit
Object was in daylight at epoch
Visualization orbit readout
Latitude
Unknown
Longitude
Unknown
Altitude
Unknown
Speed
Unknown
Apparent Right ascension
Unknown
Apparent Declination
Unknown
Sunlit
N/A
Visualization observer readout
Local Sidereal Time
07:46:43
Azimuth
Unknown
Elevation
Unknown
Doppler factor
Unknown
Orbital elements
Apogee altitude
471.798 km
Perigee altitude
470.165 km
Semi-major axis
6,849.118 km
Eccentricity
0.00012
Inclination
53.1596°
RAAN
109.5417°
Arg. of periapsis
86.4399°
True anomaly
273.66027°
Mean anomaly
273.6739°
Eccentric anomaly
273.66708°
Mean motion
3.82905 °/min
Orbital period
94.02 mins
BSTAR
0.000026104
Loading maneuver chart data...
Computing Atmospheric mass density...
Loading historical data...
Loading historical data...
Loading historical data...
Loading historical data...
Loading historical data...
Loading historical data...
Loading historical data...

Documentation

Showing up to 5 results
|